Regional Weather Roundup
Issued by NWS

Home | Current Version | Previous Version | Text Only | Print | Product List | Glossary Off
Versions: 1 2 3 4 5 6 7 8 9 10 11 12 13 14 15 16 17 18 19 20 21 22 23 24 25 26 27 28 29 30 31 32 33 34 35 36 37 38 39 40 41 42 43 44 45 46 47 48 49 50

451
ASUS43 KLMK 220302
RWRKY
KENTUCKY REGIONAL WEATHER ROUNDUP
NATIONAL WEATHER SERVICE LOUISVILLE KY
1100 PM EDT THU MAY 21 2015

NOTE "FAIR" INDICATES FEW OR NO CLOUDS BELOW 12,000 FEET
WITH NO SIGNIFICANT WEATHER AND/OR OBSTRUCTIONS TO VISIBILITY.

KYZ001>023-026-027-061>063-070>075-220400-
WESTERN AND SOUTH CENTRAL KENTUCKY

CITY           SKY/WX    TMP DP  RH WIND       PRES   REMARKS
PADUCAH        PTCLDY    49  46  90 CALM      30.21R
HENDERSON      CLEAR     48  45  87 SW3       30.19S
OWENSBORO      CLEAR     50  46  85 CALM      30.20R
HOPKINSVILLE   CLEAR     51  47  88 SW2       30.21R
BOWLING GREEN  CLEAR     50  45  83 W3        30.21R
GLASGOW        NOT AVBL
$$

KYZ024-025-028>034-038-045-046-053-220400-
NORTH CENTRAL KENTUCKY

CITY           SKY/WX    TMP DP  RH WIND       PRES   REMARKS
LOUISVILLE/SDF CLEAR     52  44  74 SW6       30.18R
LOUISVILLE/LOU CLEAR     50  43  77 SW3       30.18R
FORT KNOX      CLEAR     46  43  90 CALM      30.17S
$$

KYZ035>037-039>044-047>052-055>060-089>105-220400-
NORTHEAST KENTUCKY

CITY           SKY/WX    TMP DP  RH WIND       PRES   REMARKS
LEXINGTON      CLEAR     48  42  80 CALM      30.17R
COVINGTON      CLEAR     49  41  74 SW3       30.13R
FRANKFORT      CLEAR     46  41  82 CALM      30.16R
$$

KYZ054-064>069-076>088-106>120-220400-
SOUTHEAST KENTUCKY

CITY           SKY/WX    TMP DP  RH WIND       PRES   REMARKS
JACKSON        CLOUDY    49  47  93 CALM      30.16R FOG
LONDON         CLOUDY    52  46  80 W3        30.17R
SOMERSET       NOT AVBL
MIDDLESBORO    NOT AVBL
MONTICELLO     CLOUDY    53  48  83 NW5       30.22R
$$




USA.gov is the U.S. government's official web portal to all federal, state and local government web resources and services.